"Date","Average Accumulated Water Year PPT (in)","Average SWE (in)"
10/01/1981,0.000,0.000
10/02/1981,0.092,0.000
10/03/1981,0.620,0.000
10/04/1981,0.658,0.000
10/05/1981,0.658,0.000
10/06/1981,0.658,0.000
10/07/1981,1.116,0.000
10/08/1981,1.172,0.000
10/09/1981,1.203,0.000
10/10/1981,1.203,0.000
10/11/1981,1.203,0.000
10/12/1981,1.203,0.000
10/13/1981,1.203,0.000
10/14/1981,1.203,0.000
10/15/1981,1.203,0.000
10/16/1981,1.203,0.000
10/17/1981,1.203,0.000
10/18/1981,1.203,0.000
10/19/1981,2.776,0.005
10/20/1981,2.786,0.005
10/21/1981,2.786,0.005
10/22/1981,2.792,0.003
10/23/1981,2.795,0.002
10/24/1981,4.288,0.021
10/25/1981,4.288,0.021
10/26/1981,4.578,0.080
10/27/1981,5.542,0.031
10/28/1981,6.346,0.018
10/29/1981,6.575,0.017
10/30/1981,6.575,0.017
10/31/1981,6.575,0.017
11/01/1981,6.575,0.017
11/02/1981,6.575,0.016
11/03/1981,6.575,0.013
11/04/1981,6.575,0.013
11/05/1981,6.575,0.013
11/06/1981,6.581,0.012
11/07/1981,7.064,0.013
11/08/1981,7.064,0.013
11/09/1981,7.064,0.013
11/10/1981,7.064,0.013
11/11/1981,7.084,0.024
11/12/1981,7.094,0.020
11/13/1981,7.094,0.020
11/14/1981,7.094,0.020
11/15/1981,7.106,0.015
11/16/1981,7.130,0.012
11/17/1981,7.976,0.011
11/18/1981,8.201,0.010
11/19/1981,8.341,0.012
11/20/1981,8.342,0.013
11/21/1981,9.070,0.191
11/22/1981,9.376,0.258
11/23/1981,9.378,0.260
11/24/1981,9.378,0.260
11/25/1981,9.378,0.260
11/26/1981,9.378,0.260
11/27/1981,9.492,0.300
11/28/1981,9.523,0.305
11/29/1981,9.587,0.384
11/30/1981,9.587,0.384
12/01/1981,9.587,0.384
12/02/1981,10.399,0.604
12/03/1981,10.428,0.598
12/04/1981,10.459,0.624
12/05/1981,10.459,0.623
12/06/1981,10.735,0.935
12/07/1981,11.137,1.258
12/08/1981,11.137,1.258
12/09/1981,11.206,1.296
12/10/1981,11.224,1.304
12/11/1981,11.227,1.306
12/12/1981,11.233,1.312
12/13/1981,11.233,1.312
12/14/1981,11.233,1.312
12/15/1981,11.652,1.840
12/16/1981,12.304,2.276
12/17/1981,12.439,2.398
12/18/1981,12.481,2.431
12/19/1981,12.674,2.676
12/20/1981,12.677,2.677
12/21/1981,12.677,2.677
12/22/1981,12.679,2.678
12/23/1981,13.039,2.999
12/24/1981,13.516,3.307
12/25/1981,13.516,3.307
12/26/1981,13.516,3.307
12/27/1981,13.516,3.307
12/28/1981,13.949,3.744
12/29/1981,14.205,3.940
12/30/1981,14.252,3.985
12/31/1981,14.252,3.985
01/01/1982,14.261,3.991
01/02/1982,15.321,4.893
01/03/1982,15.321,4.893
01/04/1982,15.481,5.027
01/05/1982,17.096,5.813
01/06/1982,17.096,5.813
01/07/1982,17.119,5.846
01/08/1982,17.119,5.846
01/09/1982,17.119,5.846
01/10/1982,17.119,5.846
01/11/1982,17.119,5.846
01/12/1982,17.119,5.846
01/13/1982,17.119,5.846
01/14/1982,17.379,6.140
01/15/1982,17.390,6.148
01/16/1982,17.390,6.150
01/17/1982,17.509,6.264
01/18/1982,17.509,6.264
01/19/1982,17.509,6.264
01/20/1982,17.544,6.305
01/21/1982,17.544,6.305
01/22/1982,17.544,6.305
01/23/1982,17.544,6.305
01/24/1982,18.505,7.075
01/25/1982,18.506,7.075
01/26/1982,18.506,7.075
01/27/1982,18.506,7.075
01/28/1982,18.506,7.075
01/29/1982,18.506,7.075
01/30/1982,18.509,7.077
01/31/1982,18.589,7.130
02/01/1982,19.406,7.742
02/02/1982,19.448,7.766
02/03/1982,19.965,8.116
02/04/1982,20.884,8.102
02/05/1982,20.884,8.102
02/06/1982,21.046,8.253
02/07/1982,21.048,8.254
02/08/1982,21.049,8.255
02/09/1982,21.082,8.300
02/10/1982,21.422,8.752
02/11/1982,21.425,8.756
02/12/1982,21.425,8.756
02/13/1982,21.425,8.756
02/14/1982,21.447,8.774
02/15/1982,21.447,8.774
02/16/1982,21.447,8.774
02/17/1982,21.447,8.774
02/18/1982,21.447,8.774
02/19/1982,21.447,8.774
02/20/1982,21.710,9.017
02/21/1982,21.710,9.002
02/22/1982,21.769,9.044
02/23/1982,21.770,9.045
02/24/1982,21.771,9.045
02/25/1982,21.771,9.045
02/26/1982,21.771,9.045
02/27/1982,21.773,9.047
02/28/1982,21.773,9.047
03/01/1982,21.773,9.047
03/02/1982,21.972,9.177
03/03/1982,21.972,9.177
03/04/1982,21.972,9.177
03/05/1982,22.318,9.418
03/06/1982,22.318,9.418
03/07/1982,22.356,9.450
03/08/1982,23.171,10.058
03/09/1982,23.171,10.058
03/10/1982,23.255,10.131
03/11/1982,23.323,10.167
03/12/1982,23.413,10.122
03/13/1982,23.484,9.921
03/14/1982,23.695,9.907
03/15/1982,23.701,9.895
03/16/1982,23.701,9.895
03/17/1982,23.761,9.888
03/18/1982,23.775,9.896
03/19/1982,23.777,9.719
03/20/1982,23.777,9.655
03/21/1982,23.777,9.547
03/22/1982,24.310,10.066
03/23/1982,24.313,10.052
03/24/1982,24.313,10.052
03/25/1982,24.313,9.913
03/26/1982,24.490,9.370
03/27/1982,25.006,9.572
03/28/1982,25.006,9.572
03/29/1982,25.006,9.572
03/30/1982,25.007,9.570
03/31/1982,25.007,9.181
04/01/1982,25.396,8.757
04/02/1982,25.398,8.578
04/03/1982,25.398,8.578
04/04/1982,26.017,8.708
04/05/1982,26.020,8.710
04/06/1982,26.022,8.714
04/07/1982,26.911,10.222
04/08/1982,26.963,10.246
04/09/1982,26.964,10.246
04/10/1982,26.964,10.194
04/11/1982,26.964,10.147
04/12/1982,27.345,9.832
04/13/1982,27.345,9.710
04/14/1982,27.523,9.496
04/15/1982,27.523,9.339
04/16/1982,27.523,8.815
04/17/1982,27.523,7.689
04/18/1982,27.794,6.770
04/19/1982,27.794,6.564
04/20/1982,27.794,6.029
04/21/1982,27.824,5.259
04/22/1982,27.851,4.955
04/23/1982,27.851,4.937
04/24/1982,27.871,4.356
04/25/1982,27.871,3.911
04/26/1982,27.871,3.345
04/27/1982,28.573,3.010
04/28/1982,28.693,2.752
04/29/1982,28.693,2.682
04/30/1982,28.693,2.561
05/01/1982,28.693,2.330
05/02/1982,28.693,2.177
05/03/1982,28.719,1.962
05/04/1982,28.762,1.759
05/05/1982,28.762,1.668
05/06/1982,28.762,1.470
05/07/1982,28.762,1.202
05/08/1982,28.762,0.928
05/09/1982,28.850,0.650
05/10/1982,29.110,0.547
05/11/1982,29.110,0.504
05/12/1982,29.110,0.455
05/13/1982,29.110,0.376
05/14/1982,29.110,0.334
05/15/1982,29.110,0.286
05/16/1982,29.110,0.224
05/17/1982,29.110,0.174
05/18/1982,29.110,0.144
05/19/1982,29.110,0.112
05/20/1982,29.591,0.075
05/21/1982,29.664,0.058
05/22/1982,29.664,0.054
05/23/1982,29.664,0.046
05/24/1982,29.869,0.041
05/25/1982,30.104,0.038
05/26/1982,30.104,0.030
05/27/1982,30.104,0.019
05/28/1982,30.104,0.012
05/29/1982,30.109,0.008
05/30/1982,30.444,0.005
05/31/1982,30.629,0.003
06/01/1982,30.647,0.002
06/02/1982,31.502,0.001
06/03/1982,32.136,0.000
06/04/1982,32.147,0.000
06/05/1982,32.342,0.000
06/06/1982,32.931,0.000
06/07/1982,33.150,0.000
06/08/1982,33.254,0.000
06/09/1982,33.254,0.000
06/10/1982,33.254,0.000
06/11/1982,33.254,0.000
06/12/1982,33.254,0.000
06/13/1982,33.255,0.000
06/14/1982,33.678,0.000
06/15/1982,33.678,0.000
06/16/1982,33.696,0.000
06/17/1982,34.018,0.000
06/18/1982,34.311,0.000
06/19/1982,34.311,0.000
06/20/1982,34.569,0.000
06/21/1982,34.608,0.000
06/22/1982,34.834,0.000
06/23/1982,35.609,0.000
06/24/1982,35.671,0.000
06/25/1982,35.673,0.000
06/26/1982,35.705,0.000
06/27/1982,35.724,0.000
06/28/1982,35.735,0.000
06/29/1982,35.819,0.000
06/30/1982,37.326,0.000
07/01/1982,37.391,0.000
07/02/1982,37.391,0.000
07/03/1982,37.599,0.000
07/04/1982,37.599,0.000
07/05/1982,37.599,0.000
07/06/1982,37.599,0.000
07/07/1982,37.599,0.000
07/08/1982,37.599,0.000
07/09/1982,37.599,0.000
07/10/1982,37.599,0.000
07/11/1982,37.599,0.000
07/12/1982,37.605,0.000
07/13/1982,37.629,0.000
07/14/1982,37.629,0.000
07/15/1982,37.629,0.000
07/16/1982,37.631,0.000
07/17/1982,37.680,0.000
07/18/1982,37.786,0.000
07/19/1982,37.786,0.000
07/20/1982,38.052,0.000
07/21/1982,38.678,0.000
07/22/1982,38.679,0.000
07/23/1982,38.696,0.000
07/24/1982,38.696,0.000
07/25/1982,38.696,0.000
07/26/1982,38.696,0.000
07/27/1982,38.696,0.000
07/28/1982,38.751,0.000
07/29/1982,40.014,0.000
07/30/1982,40.052,0.000
07/31/1982,40.052,0.000
08/01/1982,40.468,0.000
08/02/1982,40.468,0.000
08/03/1982,40.761,0.000
08/04/1982,40.766,0.000
08/05/1982,41.334,0.000
08/06/1982,41.334,0.000
08/07/1982,41.334,0.000
08/08/1982,41.334,0.000
08/09/1982,41.748,0.000
08/10/1982,42.756,0.000
08/11/1982,42.756,0.000
08/12/1982,42.756,0.000
08/13/1982,42.809,0.000
08/14/1982,42.896,0.000
08/15/1982,42.984,0.000
08/16/1982,42.984,0.000
08/17/1982,42.986,0.000
08/18/1982,43.004,0.000
08/19/1982,43.004,0.000
08/20/1982,43.118,0.000
08/21/1982,43.195,0.000
08/22/1982,43.196,0.000
08/23/1982,43.196,0.000
08/24/1982,43.437,0.000
08/25/1982,43.440,0.000
08/26/1982,43.868,0.000
08/27/1982,43.868,0.000
08/28/1982,44.031,0.000
08/29/1982,44.125,0.000
08/30/1982,44.125,0.000
08/31/1982,44.142,0.000
09/01/1982,44.143,0.000
09/02/1982,44.430,0.000
09/03/1982,44.901,0.000
09/04/1982,44.901,0.000
09/05/1982,44.901,0.000
09/06/1982,44.901,0.000
09/07/1982,44.901,0.000
09/08/1982,44.901,0.000
09/09/1982,44.901,0.000
09/10/1982,44.901,0.000
09/11/1982,44.901,0.000
09/12/1982,44.902,0.000
09/13/1982,44.902,0.000
09/14/1982,44.902,0.000
09/15/1982,44.926,0.000
09/16/1982,45.587,0.000
09/17/1982,45.640,0.000
09/18/1982,45.640,0.000
09/19/1982,45.640,0.000
09/20/1982,45.640,0.000
09/21/1982,46.062,0.000
09/22/1982,46.114,0.000
09/23/1982,46.240,0.000
09/24/1982,46.626,0.000
09/25/1982,46.626,0.000
09/26/1982,46.626,0.000
09/27/1982,46.756,0.000
09/28/1982,47.256,0.000
09/29/1982,47.281,0.000
09/30/1982,47.281,0.000
10/01/1982,0.001,0.000
10/02/1982,0.058,0.000
10/03/1982,0.058,0.000
10/04/1982,0.058,0.000
10/05/1982,0.058,0.000
10/06/1982,0.058,0.000
10/07/1982,0.058,0.000
10/08/1982,1.193,0.000
10/09/1982,1.447,0.000
10/10/1982,1.578,0.001
10/11/1982,1.578,0.001
10/12/1982,1.578,0.000
10/13/1982,1.580,0.000
10/14/1982,1.870,0.000
10/15/1982,1.881,0.000
10/16/1982,1.947,0.000
10/17/1982,1.977,0.000
10/18/1982,1.981,0.000
10/19/1982,1.981,0.000
10/20/1982,1.981,0.000
10/21/1982,2.057,0.000
10/22/1982,2.061,0.000
10/23/1982,2.061,0.000
10/24/1982,2.061,0.000
10/25/1982,2.061,0.000
10/26/1982,2.061,0.000
10/27/1982,2.061,0.000
10/28/1982,2.061,0.000
10/29/1982,2.061,0.000
10/30/1982,2.061,0.000
10/31/1982,2.061,0.000
11/01/1982,2.138,0.000
11/02/1982,2.310,0.000
11/03/1982,2.313,0.000
11/04/1982,2.362,0.000
11/05/1982,3.329,0.000
11/06/1982,3.628,0.000
11/07/1982,3.628,0.000
11/08/1982,3.628,0.000
11/09/1982,3.628,0.000
11/10/1982,3.628,0.000
11/11/1982,3.628,0.000
11/12/1982,3.695,0.015
11/13/1982,5.029,0.000
11/14/1982,5.163,0.034
11/15/1982,5.398,0.151
11/16/1982,5.444,0.186
11/17/1982,5.444,0.186
11/18/1982,5.444,0.185
11/19/1982,5.444,0.184
11/20/1982,5.444,0.183
11/21/1982,5.444,0.151
11/22/1982,5.559,0.104
11/23/1982,5.770,0.064
11/24/1982,5.813,0.040
11/25/1982,5.865,0.047
11/26/1982,5.866,0.047
11/27/1982,6.030,0.180
11/28/1982,6.030,0.180
11/29/1982,6.291,0.276
11/30/1982,6.328,0.234
12/01/1982,6.329,0.195
12/02/1982,6.329,0.173
12/03/1982,6.329,0.119
12/04/1982,6.351,0.062
12/05/1982,6.351,0.043
12/06/1982,6.392,0.038
12/07/1982,6.420,0.028
12/08/1982,6.420,0.028
12/09/1982,6.448,0.051
12/10/1982,6.453,0.055
12/11/1982,6.493,0.085
12/12/1982,6.493,0.085
12/13/1982,6.493,0.085
12/14/1982,6.493,0.085
12/15/1982,6.493,0.085
12/16/1982,6.583,0.109
12/17/1982,7.531,0.179
12/18/1982,7.531,0.179
12/19/1982,7.531,0.179
12/20/1982,7.544,0.187
12/21/1982,7.652,0.319
12/22/1982,7.657,0.323
12/23/1982,7.658,0.323
12/24/1982,7.795,0.449
12/25/1982,7.968,0.502
12/26/1982,8.024,0.346
12/27/1982,8.024,0.307
12/28/1982,8.170,0.378
12/29/1982,8.172,0.291
12/30/1982,8.172,0.283
12/31/1982,8.172,0.283
01/01/1983,8.172,0.283
01/02/1983,8.172,0.283
01/03/1983,8.172,0.283
01/04/1983,8.172,0.283
01/05/1983,8.172,0.283
01/06/1983,8.305,0.383
01/07/1983,8.311,0.388
01/08/1983,8.413,0.510
01/09/1983,8.413,0.510
01/10/1983,8.413,0.510
01/11/1983,10.458,1.025
01/12/1983,10.530,0.866
01/13/1983,10.671,1.006
01/14/1983,10.671,1.006
01/15/1983,10.671,1.006
01/16/1983,11.328,1.957
01/17/1983,11.477,2.113
01/18/1983,11.478,2.114
01/19/1983,11.478,2.114
01/20/1983,11.478,2.114
01/21/1983,11.478,2.114
01/22/1983,11.478,2.114
01/23/1983,11.478,2.114
01/24/1983,12.819,2.526
01/25/1983,12.819,2.359
01/26/1983,12.820,2.360
01/27/1983,12.820,2.360
01/28/1983,12.820,2.360
01/29/1983,12.820,2.360
01/30/1983,12.820,2.360
01/31/1983,13.125,2.694
02/01/1983,13.129,2.608
02/02/1983,13.129,2.608
02/03/1983,14.265,2.871
02/04/1983,14.802,2.435
02/05/1983,14.809,2.440
02/06/1983,14.809,2.440
02/07/1983,14.874,2.534
02/08/1983,15.594,3.755
02/09/1983,15.626,3.771
02/10/1983,15.626,3.771
02/11/1983,15.626,3.771
02/12/1983,15.708,3.901
02/13/1983,15.743,3.932
02/14/1983,15.743,3.932
02/15/1983,15.743,3.932
02/16/1983,15.743,3.932
02/17/1983,15.745,3.933
02/18/1983,16.060,4.244
02/19/1983,16.060,4.244
02/20/1983,16.060,4.244
02/21/1983,16.060,4.244
02/22/1983,16.060,4.151
02/23/1983,16.101,4.136
02/24/1983,16.255,4.247
02/25/1983,16.255,4.247
02/26/1983,16.258,4.249
02/27/1983,16.258,4.249
02/28/1983,16.258,4.246
03/01/1983,16.258,3.982
03/02/1983,16.622,3.755
03/03/1983,17.636,3.805
03/04/1983,17.636,3.804
03/05/1983,17.636,3.804
03/06/1983,17.636,3.799
03/07/1983,17.647,3.605
03/08/1983,17.928,3.671
03/09/1983,18.347,3.938
03/10/1983,18.518,3.992
03/11/1983,19.378,4.029
03/12/1983,20.095,4.080
03/13/1983,20.485,4.189
03/14/1983,20.485,4.163
03/15/1983,20.485,3.997
03/16/1983,20.639,3.849
03/17/1983,20.639,3.736
03/18/1983,20.639,3.691
03/19/1983,20.989,3.640
03/20/1983,22.096,3.417
03/21/1983,22.121,3.358
03/22/1983,22.631,3.405
03/23/1983,22.646,3.416
03/24/1983,22.646,3.416
03/25/1983,22.646,3.416
03/26/1983,22.646,3.416
03/27/1983,22.646,3.416
03/28/1983,23.695,4.953
03/29/1983,23.725,4.796
03/30/1983,23.726,4.797
03/31/1983,23.726,4.797
04/01/1983,23.726,4.726
04/02/1983,23.726,4.547
04/03/1983,23.726,4.314
04/04/1983,24.416,4.525
04/05/1983,24.417,4.293
04/06/1983,24.417,4.005
04/07/1983,24.417,3.866
04/08/1983,24.573,3.759
04/09/1983,24.573,3.610
04/10/1983,24.573,3.488
04/11/1983,25.815,3.688
04/12/1983,26.100,3.689
04/13/1983,26.100,3.596
04/14/1983,26.100,3.461
04/15/1983,26.100,3.388
04/16/1983,26.142,3.354
04/17/1983,26.901,3.795
04/18/1983,26.933,3.692
04/19/1983,27.004,3.658
04/20/1983,27.361,3.612
04/21/1983,27.533,3.631
04/22/1983,27.566,3.622
04/23/1983,27.566,3.573
04/24/1983,27.566,3.437
04/25/1983,29.154,3.331
04/26/1983,29.215,3.167
04/27/1983,29.313,3.124
04/28/1983,29.315,2.925
04/29/1983,29.321,2.506
04/30/1983,29.696,2.082
05/01/1983,29.807,1.879
05/02/1983,30.653,1.597
05/03/1983,31.236,1.402
05/04/1983,31.349,1.109
05/05/1983,31.423,1.040
05/06/1983,31.447,0.950
05/07/1983,31.447,0.890
05/08/1983,31.447,0.749
05/09/1983,31.991,0.636
05/10/1983,32.231,0.655
05/11/1983,32.305,0.649
05/12/1983,32.512,0.640
05/13/1983,32.512,0.604
05/14/1983,32.533,0.551
05/15/1983,32.594,0.459
05/16/1983,32.861,0.421
05/17/1983,32.884,0.413
05/18/1983,32.884,0.409
05/19/1983,32.884,0.390
05/20/1983,33.320,0.345
05/21/1983,33.615,0.302
05/22/1983,33.615,0.245
05/23/1983,34.180,0.189
05/24/1983,34.513,0.169
05/25/1983,34.561,0.155
05/26/1983,34.562,0.128
05/27/1983,34.920,0.118
05/28/1983,35.273,0.115
05/29/1983,35.276,0.110
05/30/1983,35.855,0.098
05/31/1983,36.667,0.089
06/01/1983,36.897,0.080
06/02/1983,36.897,0.069
06/03/1983,36.897,0.060
06/04/1983,37.115,0.049
06/05/1983,37.772,0.043
06/06/1983,37.783,0.035
06/07/1983,37.942,0.024
06/08/1983,37.942,0.018
06/09/1983,37.942,0.016
06/10/1983,37.942,0.013
06/11/1983,37.942,0.010
06/12/1983,37.942,0.006
06/13/1983,37.942,0.003
06/14/1983,37.981,0.001
06/15/1983,37.989,0.000
06/16/1983,38.220,0.000
06/17/1983,38.329,0.000
06/18/1983,38.506,0.000
06/19/1983,38.699,0.000
06/20/1983,38.699,0.000
06/21/1983,38.699,0.000
06/22/1983,38.699,0.000
06/23/1983,38.699,0.000
06/24/1983,38.699,0.000
06/25/1983,38.766,0.000
06/26/1983,38.982,0.000
06/27/1983,39.075,0.000
06/28/1983,39.115,0.000
06/29/1983,39.115,0.000
06/30/1983,39.115,0.000
07/01/1983,39.115,0.000
07/02/1983,39.115,0.000
07/03/1983,39.616,0.000
07/04/1983,39.616,0.000
07/05/1983,39.633,0.000
07/06/1983,40.472,0.000
07/07/1983,40.536,0.000
07/08/1983,40.536,0.000
07/09/1983,40.606,0.000
07/10/1983,40.606,0.000
07/11/1983,40.606,0.000
07/12/1983,40.696,0.000
07/13/1983,40.715,0.000
07/14/1983,40.715,0.000
07/15/1983,40.717,0.000
07/16/1983,40.730,0.000
07/17/1983,40.730,0.000
07/18/1983,40.730,0.000
07/19/1983,40.730,0.000
07/20/1983,40.780,0.000
07/21/1983,40.780,0.000
07/22/1983,41.207,0.000
07/23/1983,41.226,0.000
07/24/1983,41.226,0.000
07/25/1983,41.488,0.000
07/26/1983,41.489,0.000
07/27/1983,41.489,0.000
07/28/1983,41.489,0.000
07/29/1983,41.506,0.000
07/30/1983,41.558,0.000
07/31/1983,41.596,0.000
08/01/1983,42.100,0.000
08/02/1983,42.693,0.000
08/03/1983,42.790,0.000
08/04/1983,42.790,0.000
08/05/1983,42.802,0.000
08/06/1983,42.879,0.000
08/07/1983,43.238,0.000
08/08/1983,43.282,0.000
08/09/1983,43.985,0.000
08/10/1983,43.985,0.000
08/11/1983,44.024,0.000
08/12/1983,45.232,0.000
08/13/1983,45.440,0.000
08/14/1983,45.440,0.000
08/15/1983,45.440,0.000
08/16/1983,45.440,0.000
08/17/1983,45.440,0.000
08/18/1983,45.445,0.000
08/19/1983,45.450,0.000
08/20/1983,45.486,0.000
08/21/1983,45.486,0.000
08/22/1983,45.486,0.000
08/23/1983,45.771,0.000
08/24/1983,45.771,0.000
08/25/1983,45.771,0.000
08/26/1983,45.771,0.000
08/27/1983,45.940,0.000
08/28/1983,46.411,0.000
08/29/1983,46.411,0.000
08/30/1983,46.612,0.000
08/31/1983,47.637,0.000
09/01/1983,47.768,0.000
09/02/1983,47.768,0.000
09/03/1983,47.768,0.000
09/04/1983,47.768,0.000
09/05/1983,47.768,0.000
09/06/1983,47.768,0.000
09/07/1983,47.768,0.000
09/08/1983,47.768,0.000
09/09/1983,47.768,0.000
09/10/1983,47.787,0.000
09/11/1983,47.825,0.000
09/12/1983,47.870,0.000
09/13/1983,47.870,0.000
09/14/1983,47.870,0.000
09/15/1983,47.870,0.000
09/16/1983,47.870,0.000
09/17/1983,47.882,0.000
09/18/1983,48.166,0.000
09/19/1983,48.181,0.000
09/20/1983,48.181,0.000
09/21/1983,48.181,0.000
09/22/1983,49.933,0.000
09/23/1983,49.933,0.000
09/24/1983,49.953,0.000
09/25/1983,49.953,0.000
09/26/1983,49.953,0.000
09/27/1983,49.953,0.000
09/28/1983,49.953,0.000
09/29/1983,49.953,0.000
09/30/1983,49.953,0.000
10/01/1983,0.003,0.000
10/02/1983,0.186,0.000
10/03/1983,0.193,0.000
10/04/1983,0.193,0.000
10/05/1983,0.581,0.000
10/06/1983,1.047,0.000
10/07/1983,1.063,0.000
10/08/1983,1.063,0.000
10/09/1983,1.063,0.000
10/10/1983,1.063,0.000
10/11/1983,1.063,0.000
10/12/1983,1.071,0.000
10/13/1983,2.697,0.000
10/14/1983,3.019,0.000
10/15/1983,3.019,0.000
10/16/1983,3.019,0.000
10/17/1983,3.019,0.000
10/18/1983,3.019,0.000
10/19/1983,3.019,0.000
10/20/1983,3.019,0.000
10/21/1983,3.019,0.000
10/22/1983,3.019,0.000
10/23/1983,3.019,0.000
10/24/1983,3.800,0.016
10/25/1983,3.848,0.015
10/26/1983,3.848,0.015
10/27/1983,3.871,0.021
10/28/1983,3.878,0.018
10/29/1983,3.933,0.010
10/30/1983,3.933,0.010
10/31/1983,3.933,0.010
11/01/1983,3.933,0.010
11/02/1983,3.933,0.009
11/03/1983,3.942,0.008
11/04/1983,4.487,0.006
11/05/1983,6.983,0.007
11/06/1983,7.122,0.014
11/07/1983,7.122,0.014
11/08/1983,7.122,0.014
11/09/1983,7.122,0.013
11/10/1983,7.122,0.010
11/11/1983,7.480,0.009
11/12/1983,8.060,0.033
11/13/1983,8.074,0.042
11/14/1983,8.075,0.043
11/15/1983,8.075,0.043
11/16/1983,8.755,0.375
11/17/1983,9.778,0.419
11/18/1983,9.837,0.456
11/19/1983,9.837,0.456
11/20/1983,9.837,0.455
11/21/1983,10.384,0.521
11/22/1983,10.642,0.490
11/23/1983,10.642,0.454
11/24/1983,10.642,0.434
11/25/1983,11.771,0.442
11/26/1983,12.498,1.019
11/27/1983,12.498,1.006
11/28/1983,12.498,1.006
11/29/1983,13.198,1.181
11/30/1983,13.330,1.156
12/01/1983,13.337,1.160
12/02/1983,13.341,1.162
12/03/1983,13.385,1.188
12/04/1983,13.385,1.188
12/05/1983,14.134,2.295
12/06/1983,14.134,2.295
12/07/1983,15.561,2.381
12/08/1983,15.573,2.384
12/09/1983,15.573,2.384
12/10/1983,15.573,2.384
12/11/1983,15.573,2.384
12/12/1983,15.573,2.384
12/13/1983,16.504,2.684
12/14/1983,18.118,2.525
12/15/1983,18.196,2.315
12/16/1983,18.196,2.225
12/17/1983,18.197,2.225
12/18/1983,18.201,2.227
12/19/1983,18.234,2.241
12/20/1983,18.234,2.241
12/21/1983,18.234,2.241
12/22/1983,18.239,2.244
12/23/1983,19.300,3.565
12/24/1983,19.300,3.565
12/25/1983,19.310,3.569
12/26/1983,19.310,3.569
12/27/1983,19.310,3.569
12/28/1983,19.310,3.569
12/29/1983,20.479,4.061
12/30/1983,20.480,4.061
12/31/1983,20.480,4.061
01/01/1984,20.480,4.061
01/02/1984,20.480,4.061
01/03/1984,20.480,4.062
01/04/1984,20.480,4.062
01/05/1984,20.480,4.062
01/06/1984,20.480,4.036
01/07/1984,20.567,4.049
01/08/1984,20.569,4.051
01/09/1984,20.569,4.051
01/10/1984,20.758,4.144
01/11/1984,21.364,4.939
01/12/1984,21.364,4.939
01/13/1984,21.372,4.943
01/14/1984,21.416,4.964
01/15/1984,21.464,4.997
01/16/1984,21.465,4.998
01/17/1984,21.465,4.998
01/18/1984,21.465,4.998
01/19/1984,21.525,5.046
01/20/1984,21.525,5.046
01/21/1984,21.525,5.046
01/22/1984,21.525,5.046
01/23/1984,21.525,5.046
01/24/1984,21.526,5.047
01/25/1984,22.187,5.373
01/26/1984,22.187,5.364
01/27/1984,22.187,5.364
01/28/1984,22.187,5.364
01/29/1984,22.187,5.364
01/30/1984,22.213,5.376
01/31/1984,22.318,5.445
02/01/1984,22.324,5.448
02/02/1984,22.324,5.448
02/03/1984,22.324,5.448
02/04/1984,22.783,5.544
02/05/1984,22.783,5.241
02/06/1984,23.286,5.662
02/07/1984,23.298,5.668
02/08/1984,23.298,5.668
02/09/1984,23.314,5.679
02/10/1984,23.314,5.679
02/11/1984,23.323,5.683
02/12/1984,23.434,5.703
02/13/1984,23.434,5.466
02/14/1984,23.434,5.151
02/15/1984,23.541,5.055
02/16/1984,24.497,4.824
02/17/1984,24.497,4.486
02/18/1984,24.639,4.389
02/19/1984,25.017,4.598
02/20/1984,25.147,4.542
02/21/1984,25.147,4.506
02/22/1984,25.148,4.507
02/23/1984,25.148,4.506
02/24/1984,25.320,4.347
02/25/1984,25.717,4.376
02/26/1984,26.417,4.367
02/27/1984,26.417,4.367
02/28/1984,26.499,4.421
02/29/1984,27.585,5.091
03/01/1984,27.605,5.104
03/02/1984,27.605,5.104
03/03/1984,27.605,5.104
03/04/1984,27.605,5.104
03/05/1984,27.605,5.104
03/06/1984,28.018,5.490
03/07/1984,28.018,5.490
03/08/1984,28.018,5.490
03/09/1984,28.018,5.490
03/10/1984,28.018,5.490
03/11/1984,28.019,5.491
03/12/1984,28.044,5.503
03/13/1984,28.044,5.503
03/14/1984,29.694,8.344
03/15/1984,29.772,8.377
03/16/1984,29.772,8.377
03/17/1984,29.851,8.122
03/18/1984,29.855,8.103
03/19/1984,30.356,8.251
03/20/1984,30.618,7.986
03/21/1984,30.632,7.448
03/22/1984,31.064,7.240
03/23/1984,31.064,6.832
03/24/1984,31.069,6.824
03/25/1984,31.069,6.824
03/26/1984,31.069,6.817
03/27/1984,31.069,6.817
03/28/1984,31.069,6.808
03/29/1984,31.069,6.709
03/30/1984,31.450,6.885
03/31/1984,31.467,6.876
04/01/1984,31.467,6.830
04/02/1984,31.467,6.613
04/03/1984,31.467,6.349
04/04/1984,31.467,6.185
04/05/1984,31.737,5.892
04/06/1984,33.945,5.591
04/07/1984,34.072,5.162
04/08/1984,34.167,5.065
04/09/1984,34.167,5.064
04/10/1984,34.167,5.046
04/11/1984,34.183,5.005
04/12/1984,34.185,4.817
04/13/1984,34.185,4.427
04/14/1984,34.198,4.031
04/15/1984,34.345,3.753
04/16/1984,34.494,3.718
04/17/1984,35.165,3.650
04/18/1984,35.213,3.420
04/19/1984,35.333,3.236
04/20/1984,35.462,3.153
04/21/1984,35.511,3.013
04/22/1984,35.511,3.013
04/23/1984,35.512,2.944
04/24/1984,35.636,2.676
04/25/1984,36.126,2.596
04/26/1984,36.130,2.539
04/27/1984,36.130,2.447
04/28/1984,36.130,2.311
04/29/1984,36.130,2.133
04/30/1984,36.130,1.913
05/01/1984,36.210,1.684
05/02/1984,36.210,1.599
05/03/1984,36.210,1.599
05/04/1984,36.904,1.534
05/05/1984,37.299,1.512
05/06/1984,37.304,1.497
05/07/1984,37.304,1.412
05/08/1984,37.304,1.258
05/09/1984,38.016,1.156
05/10/1984,38.016,1.097
05/11/1984,38.016,1.045
05/12/1984,38.546,0.935
05/13/1984,39.610,0.884
05/14/1984,40.070,0.801
05/15/1984,40.129,0.792
05/16/1984,40.156,0.770
05/17/1984,40.161,0.764
05/18/1984,40.161,0.744
05/19/1984,40.161,0.701
05/20/1984,40.580,0.634
05/21/1984,40.589,0.536
05/22/1984,40.589,0.462
05/23/1984,40.589,0.361
05/24/1984,41.219,0.270
05/25/1984,41.219,0.235
05/26/1984,41.219,0.181
05/27/1984,41.338,0.139
05/28/1984,41.339,0.127
05/29/1984,42.562,0.121
05/30/1984,45.148,0.117
05/31/1984,46.875,0.111
06/01/1984,47.442,0.107
06/02/1984,47.542,0.098
06/03/1984,47.848,0.094
06/04/1984,47.851,0.083
06/05/1984,47.869,0.071
06/06/1984,47.869,0.056
06/07/1984,49.340,0.045
06/08/1984,49.343,0.030
06/09/1984,49.343,0.019
06/10/1984,49.343,0.011
06/11/1984,49.343,0.006
06/12/1984,49.343,0.004
06/13/1984,49.343,0.003
06/14/1984,49.470,0.001
06/15/1984,50.136,0.001
06/16/1984,50.136,0.000
06/17/1984,50.136,0.000
06/18/1984,50.145,0.000
06/19/1984,50.380,0.000
06/20/1984,50.380,0.000
06/21/1984,50.380,0.000
06/22/1984,50.397,0.000
06/23/1984,50.397,0.000
06/24/1984,50.397,0.000
06/25/1984,51.086,0.000
06/26/1984,51.850,0.000
06/27/1984,51.970,0.000
06/28/1984,52.039,0.000
06/29/1984,52.041,0.000
06/30/1984,52.281,0.000
07/01/1984,52.361,0.000